Flag for Germany Weather past 2 weeks in Witzenhausen, Hesse, Germany

Now
59 °F

Fog.


Feels Like: 59 °F
Forecast: 53 / 63 °F
Wind: 2 mph from North

Location: Kassel / Calden

Current Time: Sep 21, 2014 at 12:19:13 AM

Latest Report: Sep 20, 2014 at 9:50 PM


Visibility: 3 mi

Pressure: 29.95 "Hg

Humidity: 100%

Dew point: 59 °F

Location of WitzenhausenLocation

Historic Weather in Witzenhausen — Graph

°F

Witzenhausen temperature yesterday

Maximum temperature yesterday: 68 °F (at 1:20 PM)
Minimum temperature yesterday: 57 °F (at 6:50 AM)
Average temperature yesterday: 62 °F

Past Weeks' High & Low Weather Summary

 TemperatureHumidityPressure
High77 °F (Sep 6, 2:20 PM)100% (Sep 6, 5:50 AM)30.21 "Hg (Sep 6, 5:50 AM)
Low46 °F (Sep 9, 6:20 AM)11% (Sep 9, 4:50 PM)29.89 "Hg (Sep 6, 2:50 PM)
Average61 °F85%30.03 "Hg
* Reported Sep 5 9:20 PM — Sep 20 9:50 PM, Witzenhausen, Weather by CustomWeather, © 2014

Note: Actual official high and low records may vary slightly from our data, if they occured in-between our weather recording intervals... More about our weather records

Advertising

Witzenhausen weather history for previous 24 hours

 ConditionsComfort  
Time TempWeatherWind HumidityBarometerVisibility
9:50 PM
Sep 20
59 °FFog.2 mph100%29.95 "Hg3 mi
9:20 PM59 °FPassing clouds.2 mph100%29.95 "Hg5 mi
8:50 PM61 °FPassing clouds.3 mph94%29.95 "HgN/A
8:20 PM61 °FPassing clouds.2 mph94%29.95 "HgN/A
7:50 PM63 °FScattered clouds.7 mph88%29.95 "HgN/A
3:20 PM64 °FScattered clouds.5 mph83%29.95 "Hg6 mi
2:50 PM64 °FBroken clouds.8 mph88%29.95 "Hg4 mi
2:20 PM66 °FThundershowers. Partly sunny.6 mph88%29.95 "Hg4 mi
1:50 PM68 °FThundershowers. Partly sunny.5 mph78%29.98 "Hg4 mi
1:20 PM68 °FPartly sunny.6 mph78%29.98 "Hg4 mi
12:20 PM66 °FMostly cloudy.2 mph88%29.95 "Hg4 mi
11:50 AM64 °FFog.5 mph94%29.95 "Hg3 mi
11:20 AM64 °FFog.5 mph94%29.95 "Hg3 mi
10:50 AM63 °FFog.3 mph100%29.95 "Hg3 mi
10:20 AM61 °FFog.2 mph100%29.95 "Hg1 mi
9:50 AM61 °FFog.1 mph100%29.95 "Hg0 mi
9:20 AM61 °FFog.1 mph100%29.95 "Hg0 mi
8:50 AM59 °FFog.1 mph100%29.95 "Hg0 mi
8:20 AM59 °FFog.No wind100%29.95 "Hg0 mi
7:50 AM57 °FFog.1 mph100%29.95 "Hg0 mi
7:20 AM57 °FFog.1 mph100%29.95 "Hg0 mi
6:50 AM57 °FFog.3 mph100%29.95 "Hg0 mi
6:20 AM59 °FFog.3 mph100%29.92 "Hg0 mi
5:50 AM59 °FFog.3 mph100%29.92 "Hg0 mi
Weather by CustomWeather, © 2014

See weather overviewHow to use our weather pages